Hourly Weather Roundup
Issued by NWS Central Illinois

Home | Current Version | Previous Version | Text Only | Print | Product List | Glossary On
Versions: 1 2 3 4 5 6 7 8 9 10 11 12 13 14 15 16 17 18 19 20 21 22 23 24 25 26 27 28 29 30 31 32 33 34 35 36 37 38 39 40 41 42 43 44 45 46 47 48 49 50
000
NZUS43 KILX 190110
HWRILX

Area Weather Roundup
National Weather Service Lincoln IL
700 PM CST SAT NOV 18 2017

NOTE:  "FAIR" indicates few or no clouds below 12,000 feet, with
       no sigificant weather and/or obstructions to visibility.


CITY           SKY/WX    TMP DP  RH WIND       PRES   REMARKS
Bloomington    PTCLDY    37  33  85 NW17      29.78R WCI  27
Champaign      CLOUDY    40  35  83 NW25G32   29.75R WCI  29
Danville       CLOUDY    38  36  89 NW20G25   29.67R WCI  29
Decatur        CLOUDY    40  35  83 NW23G35   29.79R WCI  30
Effingham      CLOUDY    42  40  90 W16       29.80R WCI  34
Flora          CLOUDY    44  40  86 NW18G28   29.70
Galesburg      CLEAR     38  33  81 W18G26    29.86R WCI  29
Jacksonville   CLEAR     40  33  77 W16G23    29.87R WCI  31
Lacon          CLEAR     36  33  90 CALM      29.80R
Lawrenceville  CLOUDY    40  37  89 NW17      29.75R WCI  31
Litchfield     MOCLDY    39  34  83 NW14G22   29.86R WCI  31
$$


CITY           SKY/WX    TMP DP  RH WIND       PRES   REMARKS
Lincoln        PTCLDY    39  36  90 NW8       29.81R WCI  33
Macomb         CLEAR     38  32  79 NW18      29.90R WCI  28
Mattoon        CLOUDY    40  37  89 NW24      29.75R WCI  29
Mt Carmel AP   CLOUDY    39  37  92 NW15G23   29.76R WCI  31
Olney-Noble AP CLOUDY    41  39  93 NW17G23   29.79R WCI  33
Paris AP       CLOUDY    39  37  91 NW17G26   29.73R WCI  30
Peoria         CLEAR     39  34  82 NW12G22   29.82R WCI  32
Pontiac        CLOUDY    39  36  91 NW17G24   29.77R WCI  30
Rantoul        CLOUDY    40  35  82 NW18G25   29.74R WCI  31
Robinson       CLOUDY    40  37  92 NW22G28   29.75R WCI  29
Springfield    MOCLDY    41  35  79 NW20      29.83R WCI  32
Taylorville    CLOUDY    39  34  81 NW15G21   29.83R WCI  31
$$

...REGIONAL REPORTS...


CITY           SKY/WX    TMP DP  RH WIND       PRES   REMARKS
Chicago O`Hare CLOUDY    39  30  70 N20G28    29.70R WCI  29
Kankakee       CLOUDY    39  33  78 NW18G25   29.71R WCI  30
Moline         CLEAR     39  30  70 NW23G37   29.84R WCI  28
Mount Sterling CLEAR     39  32  75 NW18G25   29.89R WCI  29
Mount Vernon   CLOUDY    43  39  86 NW8G18    29.83R
Pittsfield     CLEAR     41  32  71 W13G18    29.91R WCI  34
Quincy         CLEAR     40  31  70 NW15      29.92R WCI  32
Rockford       PTCLDY    34  29  82 NW6       29.78R WCI  29
$$


CITY           SKY/WX    TMP DP  RH WIND       PRES   REMARKS
Burlington     CLEAR     38  30  73 NW16G29   29.90R WCI  29
Cedar Rapids   PTCLDY    32  25  75 NW22G33   29.91R WCI  19
Des Moines     PTCLDY    35  25  66 NW12      30.03R WCI  27
Kirksville     PTCLDY    41  31  67 NW16G31   30.00R WCI  33
Ottumwa        CLEAR     36  26  67 NW21G31   29.98R WCI  25
St Louis       MOCLDY    41  35  79 W12       29.91R WCI  34
$$


CITY           SKY/WX    TMP DP  RH WIND       PRES   REMARKS
Terre Haute    CLOUDY    40  36  86 NW21G31   29.70R WCI  30
Evansville     LGT RAIN  39  37  92 NW14G28   29.77R WCI  31
Indianapolis   LGT RAIN  39  36  89 NW22G31   29.59R WCI  29
Lafayette      CLOUDY    39  37  92 NW18G33   29.64R WCI  30
Madison        CLOUDY    36  29  75 NW8       29.74R WCI  30
Milwaukee      CLOUDY    39  29  67 NW14      29.69R WCI  31
$$





USA.gov is the U.S. government's official web portal to all federal, state and local government web resources and services.